Wind_Speed
15 16 16 16 17 18 18 19 19 18 18 18 17 17 17 16 16 15 14 14 12 11 10 9 7 6 5 6 7 9 11 12 14 17 20 21 22 23 23 24 27 27 28
16 16 17 17 18 19 19 20 20 20 19 19 19 18 17 17 16 16 15 14 13 11 11 10 8 8 7 6 7 9 10 12 14 17 18 20 22 23 23 24 26 26 27
17 17 18 19 19 20 20 21 21 21 21 21 20 20 19 18 17 17 16 15 14 13 11 10 9 9 8 8 8 9 11 13 14 16 17 19 20 21 23 24 25 26 27
19 20 20 21 21 21 22 22 23 23 23 23 22 22 21 20 19 18 17 16 15 14 13 12 11 10 9 9 9 10 12 13 15 16 18 19 20 21 22 23 24 26 27
21 22 23 24 24 24 24 24 25 25 25 25 25 24 23 22 21 21 20 18 17 16 15 13 12 11 11 11 11 11 12 13 15 16 18 19 20 21 22 23 24 24 25
24 24 25 26 27 27 27 27 27 27 27 27 27 27 26 24 24 23 22 21 20 18 17 16 15 14 13 13 13 13 13 14 15 16 18 19 20 21 22 23 24 25 25
27 28 29 29 30 30 31 30 30 30 30 30 30 30 29 28 26 25 25 24 22 21 20 19 18 16 16 15 14 14 14 15 16 17 18 19 20 20 22 23 24 25 26
30 31 32 33 34 34 34 34 34 33 33 33 33 32 32 31 30 29 28 27 25 24 23 22 21 20 19 17 16 16 16 16 16 17 18 19 20 20 21 22 24 24 25
33 34 35 36 37 37 37 38 37 37 36 36 36 35 35 34 33 32 31 30 28 27 26 24 23 23 22 21 20 19 18 18 18 18 19 19 19 20 21 21 22 23 23
37 38 39 40 40 40 41 41 40 40 40 39 39 38 37 37 36 35 35 33 32 30 29 27 26 25 25 24 22 21 20 20 20 19 19 19 19 19 20 21 21 22 23
40 41 42 43 43 44 44 44 44 44 43 43 43 42 41 40 39 38 37 36 35 34 32 31 29 28 27 26 25 24 23 23 22 21 21 20 21 20 20 20 21 22 22
44 45 46 46 47 47 47 47 47 47 47 47 46 46 44 43 42 41 41 39 38 37 35 34 33 31 30 29 28 27 26 26 24 23 23 22 22 22 21 21 21 21 22
47 48 49 50 51 51 51 51 51 51 50 49 48 47 46 45 44 44 43 42 41 40 39 37 36 34 34 32 31 30 29 28 27 26 25 24 24 23 23 23 23 23 22
51 52 53 54 55 55 54 54 53 52 52 51 50 49 48 47 46 46 46 45 44 43 42 40 39 38 36 35 34 32 31 31 30 29 28 27 26 25 24 23 23 23 23
56 56 57 58 58 57 56 55 55 54 53 52 51 50 50 48 47 49 49 48 47 46 45 44 42 41 39 38 36 35 33 32 31 31 30 29 29 28 27 26 25 25 24
59 59 60 61 60 59 58 56 55 54 53 53 53 52 51 50 49 50 50 51 50 49 48 46 45 43 42 40 39 37 36 34 33 32 32 31 30 30 29 28 28 27 27
62 62 63 62 61 60 58 57 56 54 54 53 52 51 51 51 51 51 52 53 52 52 51 49 47 45 44 43 41 40 38 37 35 35 33 32 32 31 30 29 29 29 28
64 64 64 63 61 60 58 57 56 55 53 52 51 50 50 50 51 51 52 54 54 54 53 51 49 48 46 45 44 42 41 39 38 36 35 34 33 32 31 31 30 29 29
64 63 63 63 61 60 58 57 55 54 53 51 50 49 48 49 51 52 52 54 55 54 54 53 52 50 48 47 45 44 43 41 40 38 37 36 35 34 33 32 31 31 30
63 62 62 61 60 58 57 55 53 52 50 49 48 47 47 48 50 51 51 53 54 55 55 54 53 52 50 48 47 46 45 43 42 40 38 37 36 35 34 33 32 32 31
63 62 61 59 57 55 54 52 50 49 47 47 47 46 46 47 48 50 51 52 53 55 55 54 53 52 50 49 48 47 46 45 43 41 39 38 37 36 34 34 33 32 31
62 61 59 57 55 53 51 49 48 47 46 46 46 45 45 47 47 47 48 50 52 54 54 54 54 53 51 50 49 48 47 46 44 42 40 39 37 36 35 34 33 32 32
61 59 57 55 53 51 49 47 46 45 45 44 44 44 44 45 45 46 46 47 49 51 54 54 52 51 51 50 49 48 47 45 44 43 41 40 38 37 36 35 34 33 32
59 57 54 52 50 48 46 44 44 43 43 42 42 41 42 42 43 44 46 46 48 50 52 53 52 51 50 49 49 48 48 46 44 43 42 40 39 38 36 35 34 33 32
55 53 51 49 48 46 44 43 42 42 42 41 40 39 38 39 41 42 44 46 47 48 50 50 50 50 50 48 48 49 48 46 45 44 42 41 40 39 38 36 35 34 33
52 50 48 47 46 44 42 41 41 41 41 40 39 38 37 37 38 39 41 44 46 47 48 48 48 48 49 48 48 48 48 47 45 43 42 41 40 39 38 37 36 35 35
Wind_Direction
307 305 303 303 304 305 306 306 307 307 309 313 315 319 321 324 326 327 329 332 333 332 330 327 321 311 289 260 242 230 224 220 217 217 217 219 219 221 222 225 226 227 228
313 310 308 306 305 304 304 305 305 305 304 306 308 310 312 315 317 319 320 323 325 324 322 320 313 304 294 274 254 239 230 225 222 220 220 221 222 225 226 229 228 229 231
314 312 310 308 307 306 304 304 303 303 302 301 302 303 304 306 308 310 312 314 315 315 313 312 310 301 292 280 260 244 237 233 230 227 225 224 226 228 230 231 232 232 232
312 311 310 308 307 305 304 303 303 302 301 300 298 297 297 298 299 300 302 304 304 304 303 301 300 296 288 279 265 252 243 238 234 232 230 229 231 232 233 235 236 235 236
309 309 308 307 306 305 303 302 301 301 300 298 296 294 293 292 292 292 293 294 295 295 293 291 291 290 284 276 268 258 249 242 237 234 234 234 233 234 235 236 236 237 237
308 307 306 306 305 304 302 300 299 298 296 295 294 291 289 288 287 287 286 286 286 287 286 284 283 281 278 273 267 260 253 245 240 239 238 237 236 235 236 238 238 237 238
306 305 305 304 303 303 301 299 298 296 294 292 291 289 286 284 283 282 282 281 280 279 279 278 277 276 272 269 264 259 255 248 244 242 242 240 240 239 240 240 239 238 239
304 304 303 302 301 300 299 298 297 295 293 291 289 287 284 281 279 278 277 276 275 273 272 272 272 271 269 265 262 259 255 252 249 247 245 244 244 244 242 242 241 242 242
304 303 302 301 300 299 298 297 295 293 291 289 287 285 282 279 276 274 273 272 271 269 268 267 266 267 265 263 260 258 255 252 252 251 251 249 246 244 244 243 243 242 243
304 303 301 300 299 298 297 295 293 290 288 287 284 282 280 277 274 271 269 268 267 266 265 263 262 263 262 261 259 257 255 252 252 252 251 249 247 247 247 247 247 246 246
303 303 302 300 299 297 296 294 292 289 287 285 283 280 277 274 271 268 266 265 264 263 262 260 259 259 259 258 257 255 254 253 251 252 252 251 249 248 248 248 249 247 247
303 302 301 300 298 297 295 293 291 288 286 284 282 279 276 272 268 266 264 262 260 259 259 258 256 255 255 255 254 253 252 252 251 251 251 251 250 249 248 249 249 248 249
303 301 301 300 298 296 294 292 290 288 286 284 281 278 275 270 266 262 261 259 258 257 256 255 254 253 252 252 252 252 252 251 251 250 250 250 249 249 250 251 251 251 253
302 301 300 299 298 295 293 291 289 288 286 284 280 277 274 269 264 261 258 256 255 255 254 253 252 250 250 250 250 250 251 251 251 250 250 249 249 248 250 250 251 252 254
303 302 301 300 298 295 292 290 288 286 285 283 280 277 273 269 264 260 256 254 253 252 252 251 251 249 248 248 249 249 249 250 250 250 250 250 250 250 250 251 252 253 254
303 303 302 301 298 295 292 289 287 285 283 282 279 276 272 268 263 258 255 252 251 249 249 249 249 248 247 246 247 247 247 248 248 249 249 249 250 250 251 251 252 253 255
303 303 302 300 298 296 293 290 288 285 283 280 278 275 271 267 263 258 253 250 249 247 246 247 247 247 246 245 245 245 246 246 246 247 248 249 249 249 250 251 252 253 255
303 302 301 300 298 296 293 291 289 287 283 278 275 272 269 265 261 258 254 249 247 245 245 245 245 245 245 244 243 244 244 245 245 246 247 247 248 249 249 250 252 254 255
303 302 301 300 298 296 293 290 289 287 284 279 274 270 267 263 260 257 255 249 246 244 243 243 243 243 244 243 242 242 243 244 244 245 245 246 247 248 249 250 252 255 256
302 302 301 300 299 296 293 290 288 285 282 278 275 271 267 263 259 256 254 250 246 242 242 241 241 241 242 242 241 241 242 242 244 244 244 244 245 247 248 250 252 254 255
302 302 301 301 299 297 293 290 288 285 282 278 274 271 267 264 260 255 252 248 245 241 240 240 239 239 239 239 240 240 241 241 243 243 242 242 244 246 247 249 251 253 255
302 302 301 300 299 296 293 290 288 286 285 279 274 270 267 264 260 256 251 247 242 239 238 238 237 237 237 237 238 239 239 240 241 242 241 241 243 244 246 248 250 253 255
302 302 301 300 298 295 293 290 288 286 285 282 277 271 266 263 259 256 250 245 241 238 238 237 236 235 236 236 236 237 238 239 240 241 241 241 242 243 244 247 250 252 255
302 302 300 299 298 296 293 290 288 286 285 283 279 274 268 262 258 255 250 244 239 236 236 236 235 233 233 234 233 234 235 236 237 239 240 240 241 242 244 246 249 251 254
302 301 299 298 297 296 293 290 288 287 285 284 280 275 270 263 258 254 249 243 238 235 233 233 233 232 232 232 232 232 233 234 236 238 238 238 239 241 243 246 248 251 254
302 301 299 298 297 295 293 291 289 288 286 285 281 276 270 264 258 252 247 240 236 233 231 230 230 231 231 230 229 230 231 231 233 235 237 238 239 240 242 245 249 252 254
Height
5840 5839 5837 5836 5834 5832 5831 5829 5827 5825 5823 5821 5819 5817 5814 5812 5809 5807 5804 5801 5799 5797 5795 5793 5792 5791 5789 5789 5789 5789 5790 5791 5793 5795 5797 5800 5803 5806 5808 5811 5814 5817 5820
5838 5836 5834 5832 5831 5829 5827 5826 5824 5822 5820 5818 5816 5814 5812 5810 5807 5805 5803 5800 5798 5796 5794 5792 5791 5789 5788 5788 5787 5788 5788 5789 5790 5792 5794 5796 5799 5802 5804 5807 5809 5812 5815
5835 5833 5831 5829 5827 5825 5823 5822 5820 5818 5816 5814 5812 5811 5809 5807 5805 5803 5801 5798 5796 5794 5792 5791 5789 5788 5787 5786 5785 5785 5786 5786 5787 5789 5790 5793 5795 5797 5800 5802 5804 5807 5809
5831 5829 5827 5825 5823 5821 5819 5817 5816 5814 5812 5810 5808 5806 5805 5803 5801 5799 5798 5796 5794 5792 5790 5788 5787 5786 5785 5784 5783 5783 5783 5783 5784 5785 5787 5789 5791 5792 5795 5797 5799 5801 5803
5827 5825 5823 5820 5819 5817 5814 5813 5811 5809 5807 5805 5803 5801 5800 5798 5797 5795 5794 5792 5790 5789 5787 5786 5784 5783 5782 5781 5780 5780 5779 5780 5780 5781 5783 5784 5786 5788 5789 5791 5793 5795 5797
5822 5819 5817 5815 5813 5811 5809 5806 5804 5802 5801 5799 5797 5795 5794 5792 5791 5790 5788 5787 5786 5784 5783 5782 5781 5780 5778 5777 5776 5776 5776 5776 5777 5777 5778 5780 5781 5782 5784 5785 5787 5789 5791
5815 5813 5811 5808 5806 5804 5801 5799 5797 5795 5793 5791 5789 5788 5787 5786 5784 5783 5782 5781 5780 5779 5778 5777 5776 5775 5774 5773 5772 5772 5772 5772 5773 5773 5774 5774 5775 5777 5778 5779 5780 5782 5784
5808 5806 5803 5801 5798 5796 5793 5791 5788 5786 5784 5782 5781 5779 5778 5777 5776 5775 5774 5773 5773 5772 5772 5771 5771 5770 5769 5769 5768 5768 5767 5768 5768 5768 5769 5769 5770 5771 5772 5773 5774 5775 5777
5799 5797 5794 5791 5789 5786 5783 5781 5778 5776 5773 5772 5770 5769 5768 5767 5767 5766 5765 5765 5765 5764 5764 5764 5764 5764 5764 5763 5763 5762 5762 5763 5763 5763 5763 5764 5764 5765 5766 5767 5768 5769 5770
5790 5787 5784 5781 5778 5775 5772 5769 5766 5764 5762 5760 5758 5757 5756 5755 5755 5755 5755 5755 5755 5756 5756 5756 5756 5756 5756 5756 5756 5756 5756 5757 5757 5758 5758 5758 5759 5759 5760 5761 5762 5763 5764
5779 5776 5772 5769 5766 5763 5760 5757 5754 5751 5749 5747 5745 5744 5742 5742 5742 5742 5743 5743 5744 5745 5746 5746 5747 5748 5748 5748 5749 5749 5750 5750 5751 5751 5752 5752 5753 5753 5754 5755 5756 5757 5758
5767 5763 5760 5756 5752 5748 5745 5742 5739 5736 5733 5731 5729 5728 5727 5727 5728 5729 5729 5731 5732 5733 5735 5736 5737 5738 5738 5739 5740 5742 5742 5742 5743 5744 5745 5746 5746 5747 5748 5749 5749 5750 5751
5753 5749 5745 5741 5736 5732 5729 5725 5722 5718 5716 5713 5712 5711 5710 5710 5711 5713 5715 5716 5718 5719 5722 5724 5725 5727 5728 5729 5731 5732 5733 5734 5735 5736 5737 5738 5739 5740 5741 5742 5743 5743 5744
5738 5734 5729 5724 5719 5715 5711 5707 5703 5700 5697 5695 5693 5693 5692 5693 5694 5696 5698 5700 5703 5705 5708 5710 5712 5714 5716 5718 5720 5722 5723 5725 5727 5728 5729 5730 5731 5732 5733 5734 5735 5736 5737
5722 5716 5711 5705 5701 5696 5692 5688 5684 5682 5678 5676 5675 5674 5674 5675 5677 5678 5680 5683 5687 5690 5692 5695 5698 5701 5704 5706 5709 5711 5713 5715 5717 5718 5720 5721 5723 5724 5725 5727 5728 5729 5730
5704 5698 5692 5686 5680 5675 5671 5669 5665 5662 5660 5657 5655 5654 5654 5655 5657 5658 5661 5665 5669 5672 5676 5680 5684 5688 5691 5694 5697 5700 5702 5704 5707 5708 5710 5712 5714 5715 5717 5718 5719 5720 5722
5685 5679 5672 5666 5660 5655 5651 5647 5645 5643 5640 5638 5635 5634 5633 5634 5636 5639 5642 5646 5650 5654 5658 5664 5669 5673 5677 5681 5684 5687 5690 5693 5695 5698 5700 5702 5704 5706 5708 5709 5710 5712 5713
5666 5659 5652 5646 5640 5635 5630 5626 5623 5621 5620 5618 5616 5614 5614 5615 5617 5619 5622 5625 5631 5636 5642 5648 5653 5658 5662 5666 5671 5674 5678 5681 5684 5687 5689 5691 5694 5696 5698 5700 5701 5703 5704
5646 5640 5633 5627 5621 5615 5611 5607 5603 5600 5598 5597 5596 5596 5595 5596 5598 5600 5602 5606 5612 5618 5624 5630 5636 5642 5647 5652 5656 5661 5665 5668 5671 5675 5678 5680 5683 5686 5688 5690 5692 5693 5694
5628 5621 5614 5608 5601 5596 5591 5587 5584 5581 5579 5577 5577 5576 5576 5577 5579 5582 5584 5588 5593 5600 5606 5612 5619 5625 5631 5636 5641 5646 5651 5655 5659 5662 5666 5669 5672 5675 5677 5680 5682 5683 5685
5609 5603 5596 5589 5583 5577 5572 5568 5565 5562 5560 5559 5559 5558 5557 5558 5560 5563 5566 5570 5575 5581 5588 5594 5601 5608 5614 5620 5626 5631 5637 5642 5646 5650 5654 5657 5661 5664 5666 5669 5671 5673 5675
5590 5584 5578 5571 5566 5560 5555 5551 5548 5545 5543 5541 5541 5541 5540 5540 5542 5545 5548 5552 5557 5563 5570 5577 5584 5591 5598 5604 5610 5616 5622 5628 5633 5637 5641 5645 5649 5652 5655 5658 5661 5663 5664
5572 5566 5560 5554 5548 5543 5539 5535 5532 5529 5526 5524 5523 5522 5523 5523 5525 5527 5531 5534 5539 5546 5553 5559 5567 5575 5582 5589 5595 5602 5608 5614 5620 5625 5629 5633 5637 5641 5644 5647 5650 5652 5654
5555 5549 5543 5537 5532 5527 5523 5520 5516 5514 5511 5508 5507 5506 5506 5506 5508 5511 5514 5518 5523 5530 5536 5543 5551 5559 5566 5573 5580 5587 5594 5600 5606 5611 5616 5621 5625 5629 5632 5636 5639 5641 5643
5538 5532 5526 5521 5516 5512 5508 5505 5502 5499 5496 5494 5492 5491 5490 5491 5492 5495 5498 5503 5508 5514 5521 5528 5535 5543 5551 5558 5565 5573 5580 5587 5593 5598 5604 5608 5613 5617 5621 5624 5627 5630 5632
5523 5517 5511 5506 5502 5498 5494 5491 5488 5485 5482 5480 5478 5476 5476 5476 5478 5480 5484 5488 5494 5500 5507 5514 5521 5529 5536 5544 5551 5559 5566 5573 5579 5585 5591 5596 5601 5605 5609 5613 5616 5619 5621